{"data":{"norad_id":61691,"epoch":"2026-09-21T20:39:48.802464Z","epoch_age_seconds":70599,"freshness":"FRESH","line1":"1 61691U 24195E   26264.86098151  .00000609  00000+0  98881-5 0  9995","line2":"2 61691  53.1583 139.2742 0000978  82.6926 277.4203 15.69706188109843","mean_motion":15.69706188,"eccentricity":9.78e-5,"inclination_deg":53.1583,"raan_deg":139.2742,"arg_perigee_deg":82.6926,"mean_anomaly_deg":277.4203,"bstar":9.8881e-6,"rev_number":10984,"period_min":91.736912997377,"perigee_km":359.07869478506,"apogee_km":360.39662306834,"semimajor_km":6737.8746589267,"source":"CELESTRAK","updated_at":"2026-09-22T09:00:49.406712Z"}}